sat.trackr.live / text

‹ back to catalog

STARLINK-33627

NORAD 63068 · 2025-035S

PAYLOAD ACTIVE UNKNOWN

§ Identity

Operator
Country
US
Launch date
2025-02-21
Launch site
AFETR
Launch vehicle
Mass (kg)
RCS (m²)

Purposes: comms

External: N2YO · Heavens-Above · Gunter

§ Orbital elements

Epoch: 2026-05-25T03:50:30.850656Z

Period
94.27 min
Inclination
42.9970°
Eccentricity
0.0001148
Mean motion
15.27590712 rev/d
Perigee alt
482.2 km
Apogee alt
483.8 km
Semi-major
6,861.2 km
B*
5.3896e-4
RAAN
75.3171°
Arg perigee
272.3663°
Mean anomaly
87.7057°
Rev number
7,141

§ Raw data

STARLINK-336271 63068U 25035S   26145.16007929  .00014603  00000+0  53896-3 0  99972 63068  42.9970  75.3171 0001148 272.3663  87.7057 15.27590712 71419

JSON: /api/v1/satellites/63068 · /tle

For live sub-satellite position, see the globe view (requires WebGL).

§ Visibility from observer

Set your observer location to see the next 7 days of passes ≥ 10°. The values pass through the URL so the page stays shareable.

No JS? Fill the form by hand. The geolocation button needs JavaScript.